Погода в Кызылжаре

Погода в Кызылжаре : погода сейчас, прогноз погоды и архив. Всё, что Вы хотите узнать о погоде в Кызылжаре!

Поиск расширенной информации на нашем сайте:

Другие новости

Новости СМИ2

Главная страница сайта

Новости сайта

03.07.2017

Напоминаем, что на нашем специализированном сайте Метеоцентр.Азия вы можете получить высокодетализированные автоматические прогнозы погоды по пунктам России, СНГ и мира в авиационном формате (включающие направление и скорость ветра, видимость, явления погоды, количество и форму облачности, нижнюю и верхнюю границу облачности).

Рекомендуем: Годування собаки

Погода в Кызылжаре - сегодня

Время (UTC), дата Ветер
(°,м/с) 
Видим.   Явления Облачность Т
(°С)
Тd
(°С)
f(%) Тe
(°С)
Pmin
(гПа)
dP
(гПа)
Po
(мм)
O2
(г/м3)
Тmin Tmax R s Состояние
почвы
03 21.04.18 190 (Ю) 20000 м    8/8 2000 м средняя 
[Ac trans]
+11 +0.5 48 +10  1013.3  -0.5  750  291           
06 21.04.18 200 (Ю) 20000 м  пыльный позёмок  8/8 2000 м средняя, верхняя 
[Ac trans|Ci sp]
+17.6 +1.2 33 +17  1010.8  -1.9  727  275  +4.7         
09 21.04.18 210 (ЮЗ) 20000 м  пыльный позёмок  8/8 1000 м 
[Cu hum]
+20.2 +0.4 27 +20  1008.1  -2.9  725  272           
15 21.04.18 250 (З) н/о    8/3 1000 м средняя 
[Cu hum|As trans]
+17 +2.5 38 +17  1006.8  724  274    +21       
18 21.04.18 200 (Ю) н/о    8/8 2000 м средняя 
[As trans]
+15 +2.5 43 +15  1007.2  0.1  724  276    +21       
21 21.04.18 210 (ЮЗ) н/о    8/8 2000 м средняя 
[As trans]
+13.8 +4.1 52 +14  1006.7  -0.8  724  277           
00 22.04.18 200 (Ю) н/о    10/10 2000 м 
[Ns]
+11.1 +6.3 72 +11  1006.6  -0.7  723  279           
06 22.04.18 120 (ЮВ) 20000 м  в посл. час ливневой дождь  10/8 600 м кучево-дожд., средняя 
[Cb cap|As trans]
+12.8 +10.1 84 +15  1007.7  724  277  +11         
09 22.04.18 200 (Ю) 20000 м    9/3 1000 м средняя 
[Cu med, cong|Ac As]
+18.1 +8.1 52 +18  1005.7  -1.6  723  272           
12 22.04.18 280 (З) 20000 м    10/8 1000 м средняя 
[Cu med, cong|As trans]
+17.5 +9.4 59 +19  1005.9  0.3  723  272           
18 22.04.18 040 (СВ) н/о    10/10 2000 м 
[Ns]
+11.3 +9.8 90 +14  1008.7  1.2  725  279    +20.1  0.6     
21 22.04.18 050 (СВ) н/о    10/10 2000 м 
[Ns]
+10.2 +9.8 97 +12  1009.5  0.8  725  280           
00 23.04.18 190 (Ю) н/о    10/10 2000 м 
[Ns]
+10.1 +9.7 97 +11  1010.3  0.9  726  280           
03 23.04.18 180 (Ю) 20000 м    8/8 2000 м средняя, верхняя 
[Ac As|Ci fib]
+11.2 +10.4 95 +13  1011  1.2  726  279           
06 23.04.18 180 (Ю) 20000 м    8/6 1000 м верхняя 
[Cu hum|Ci sp]
+15.8 +7.5 58 +16  1011.5  1.5  727  276  +10.1         
09 23.04.18 200 (Ю) 20000 м    8/8 1000 м 
[Cu hum]
+17.7 +6.6 48 +19  1011.2  -0.1  727  274           
12 23.04.18 210 (ЮЗ) 20000 м    10/10 1000 м 
[Cu med, cong]
+17.1 +7 51 +18  1011.5  0.4  727  275           
15 23.04.18 200 (Ю) н/о    9/9 2000 м средняя 
[Ac As]
+15.3 +7.6 60 +17  1012.1  0.4  728  276    +18.4       
18 23.04.18 тихо ()   н/о    9/9 2000 м средняя 
[Ac As]
+12.2 +9.7 85 +14  1012.8  0.3  728  279    +18.4       
21 23.04.18 200 (Ю) н/о    10/10 2000 м 
[Ns]
+11.4 +10.6 95 +16  1011.5  -1.7  727  279           
00 24.04.18 220 (ЮЗ) н/о  в посл. час ливневой дождь  10/8 600 м кучево-дожд., верхняя 
[Cb cap|Ci sp]
+10.9 +10.5 97 +13  1010.8  -1.1  726  279           
03 24.04.18 030 (СВ) 20000 м  {ливн. осадки}  10/8 1000 м средняя 
[Cu med, cong|As op]
+10.8 +10.6 99 +15  1008.7  -2.7  725  279           
06 24.04.18 320 (СЗ) 10 км  слаб. дождь  10/10 600 м 
[Ns]
+11.6 +11.6 100 +16  1005.8  -3.5  723  277  +10.8       
09 24.04.18 330 (СЗ) 10 км  слаб. дождь  10/10 600 м 
[Ns]
+10.3 +10.3 100 +12  1004.5  -2  722  278           
12 24.04.18 310 (СЗ) 10 км  слаб. дождь  10/10 600 м 
[Ns]
+9.1 +9.1 100 +9  1005.9  1.6  723  280           
Время (UTC), дата Ветер
(°,м/с) 
Видим.   Явления Облачность Т
(°С)
Тd
(°С)
f(%) Тe
(°С)
Pmin
(гПа)
dP
(гПа)
Po
(мм)
O2
(г/м3)
Тmin Tmax R s Состояние
почвы

Для получения пояснительной информации подведите курсор к названию столбца.

ПОГОДА в Кызылжаре - архив

Всё, что Вы хотите узнать о погоде в Кызылжаре - удобно и подробно!

Выберите нужную дату (начиная с 1 января 2015* года) и нажмите кнопку "Найти".
Будут отображены архивные сводки погоды по пункту Кызылжар, начиная с указанной даты.


Отображать данные в формате CSV (для использования в таблицах Excel)


Внимание! Наш архив погоды предназначен исключительно для личного некоммерческого использования в познавательных целях. Если Вам необходимы официальные справки о состоянии погоды (для производственных, юридических, коммерческих и т.п. целей), обращайтесь в органы Росгидромета.

*Примечание: данная дата относится к архиву по метеостанциям СССР (Россия, СНГ, Балтия).
Архив по метеостанциям Зарубежной Европы и Азии (кроме Китая) хранится 10 дней, по другим регионам земного шара (Китай, Африка, Америка, Австралия, Океания) - 1 день.

Кызылжар - район местоположения метеостанции


Название, широта, долгота, высота метеостанции:
Кызылжар 48.3°ш. 69.6°д. 361 м над ур. моря [Казахстан]

Дополнительная информация

В oтличие oт бoльшинства пoгoдных сайтoв мы публикуем пoдрoбную метеoинфoрмацию в детальнoм прoфессиoнальнoм фoрмате.

Характеристики температуры и влажнoсти вoздуха измеряются на высoте 2 м в тени вдали oт зданий и деревьев.
Скoрoсть ветра измеряется на высoте 10 м (на урoвне рoста челoвека скoрoсть ветра ниже в 1.5-2 раза). Если метеoстанция нахoдится в гoрoде или в лесу, тo скoрoсть ветра занижена на 2-4 м/с пo сравнению с oткрытым местoм. Скoрoсть ветра над акватoриями крупных рек и oзёр, а также на вершинах хoлмoв на 2-5 м/с выше, чем в oбычных услoвиях.
Атмoсфернoе давление в разных тoчках местнoсти мoжет значительнo oтличаться oт давления на метеoстанции, в зависимoсти oт услoвий рельефа (при пoдъёме на 10 м давление пoнижается примернo на 1 мм рт.ст.).